Simultaneous Nadir Overpasses (SNOs) Predictions

Prediction of SNOs between NOAA-18 and METOP-C Satellite Orbit:

Table of predicted SNOs for the next 14.0 days since TLE Epoch: 11/22/2024
Index Date (NOAA-18) Time (NOAA-18) Lat,Lon (NOAA-18) SZA (NOAA-18 ) Date (METOP-C) Time (METOP-C) Lat,Lon (METOP-C) SZA (METOP-C ) Distance(km) Time Diff (sec)
1 11/24/2024 02:47:16 -81.13, 23.21 72.88 11/24/2024 02:48:18 -81.14, 23.08 72.86 2.34 62
2 11/24/2024 03:38:09 81.14,-169.38 107.15 11/24/2024 03:38:58 81.13,-169.41 107.18 0.56 49
3 11/24/2024 04:29:12 -81.14, -2.18 72.85 11/24/2024 04:29:39 -81.13, -2.02 72.81 2.79 27
4 11/24/2024 05:20:05 81.14, 165.22 107.18 11/24/2024 05:20:20 81.14, 165.11 107.17 1.93 15
5 11/24/2024 06:11:08 -81.14, -27.58 72.83 11/24/2024 06:11:01 -81.14, -27.50 72.82 1.33 7
6
